Weather in Krasnyy Yar

Russia / Novosibirsk Oblast     54°27′06″N   82°09′16″E
temp.,
°C
wind,
m/s
gust,
m/s
humid.,
%
clouds,
%
prec.,
mm/h
press.,
hPa
HPBL,
m
25 february, thu
thu2501:00−18wsw7177882 2.1 1014531
04:00−21sw510860 0.0 1016186
07:00−23sw510911 0.0 1017180
10:00−23sw511850 0.0 1019313
13:00−19sw7128221 0.0 10201236
16:00−19sw81583100 0.1 10201706
19:00−20sw51292100 0.1 1021799
22:00−20sw61192100 0.1 10221078
26 february, fri
fri2601:00−21sw61291100 0.1 1023794
04:00−22sw61192100 0.1 1024738
07:00−23sw81390100 0.1 1027762
10:00−25sw81490100 0.1 1029657
13:00−22wsw81390100 0.1 1032917
16:00−22wsw81190100 0.1 1033954
19:00−23wsw51092100 0.2 1035607
22:00−24sw41095100 0.1 1036465
27 february, sat
sat2701:00−26wsw41094100 0.1 1036358
04:00−27sw3795100 0.0 1037195
07:00−26sw4894100 0.1 1037354
10:00−26sw4893100 0.0 1038396
13:00−24sw4692100 0.1 1038477
16:00−22wsw3691100 0.0 1038536
19:00−25sw239599 0.0 103823
22:00−28sw339426 0.0 103927
28 february, sun
sun2801:00−29sw239413 0.0 103920
04:00−30ssw22940 0.0 103920
07:00−29sse239512 0.0 103923
10:00−27sse349515 0.0 103953
13:00−20sse368920 0.0 1037279
16:00−16se478868 0.0 1034403
19:00−14se479184 0.0 1031171
22:00−11sse61292100 0.1 1028485
1 march, mon
mon101:00−9sse71392100 0.4 1024616
04:00−8s71394100 0.9 1020682
07:00−7s71393100 2.1 1017665
10:00−5ssw91693100 1.1 1015737
13:00−2ssw101793100 2.5 1013851
16:000sw101692100 0.4 10121004
19:000wsw81497100 1.6 1013743
22:00−1wsw6129198 0.2 1014444